Overview Statistics Trail Chart Weather Telemetry Raw packets
 

This is the latest recevied weather packets stored in our database for station/object N9BLE. If no packets are shown the sender has not sent any weather packets the latest 10 day(s).

<< 68 69 70 71 72 73 74 >>
Time Temp. Humidity Pressure Rain* Wind** Luminosity Snow
1777562886 11.67° C 47% 1020.4 hPa 0 mm - 78 W/m² -
1777562579 11.67° C 51% 1020 hPa 0 mm - 120 W/m² -
1777562277 11.67° C 48% 1020.2 hPa 0 mm - 165 W/m² -
1777561974 12.22° C 48% 1020 hPa 0 mm - 174 W/m² -
1777561671 11.67° C 48% 1019.9 hPa 0 mm - 263 W/m² -
1777561366 11.67° C 50% 1020.2 hPa 0 mm - 213 W/m² -
1777561062 11.11° C 52% 1020.2 hPa 0 mm - 221 W/m² -
1777560758 11.11° C 55% 1020 hPa 0 mm - 191 W/m² -
1777560455 11.11° C 51% 1020 hPa 0 mm - 112 W/m² -
1777560162 11.11° C 53% 1019.8 hPa 0 mm - 210 W/m² -
1777559849 10.56° C 52% 1020.3 hPa 0 mm - 167 W/m² -
1777559545 10.56° C 54% 1020 hPa 0 mm - 144 W/m² -
1777559244 10° C 57% 1020 hPa 0 mm - 136 W/m² -
1777558938 10° C 55% 1020.4 hPa 0 mm - 99 W/m² -
1777558634 10° C 60% 1020.5 hPa 0 mm - 148 W/m² -
1777558329 10° C 62% 1020.4 hPa 0 mm - 158 W/m² -
1777558026 10° C 64% 1020.5 hPa 0 mm - 145 W/m² -
1777557722 9.44° C 60% 1020.4 hPa 0 mm - 107 W/m² -
1777557419 9.44° C 63% 1020.4 hPa 0 mm - 79 W/m² -
1777557115 9.44° C 66% 1020.5 hPa 0 mm - 73 W/m² -
1777556811 8.89° C 64% 1020.3 hPa 0 mm - 151 W/m² -
1777556508 8.33° C 70% 1020.5 hPa 0 mm - 97 W/m² -
1777556207 8.33° C 66% 1020.3 hPa 0 mm - 106 W/m² -
1777555903 8.89° C 67% 1020.4 hPa 0 mm - 119 W/m² -
1777555599 8.33° C 67% 1020.4 hPa 0 mm - 159 W/m² -

* Rain latest hour (hover to see other rain measurements)
** Current wind speed in m/s (hover to see current wind gust speed)